Cobar Airport, Australia

3:59 AM AEDT on December 15, 2019 (GMT +1100)
Cobar

Weather History for YCBA - October, 2019

Change the Weather History Date:

Sunday, October 6, 2019

  Actual Average Record
Temperature  
Mean Temperature 84 °F -  
Max Temperature 100 °F - - ()
Min Temperature 69 °F - - ()
Cooling Degree Days 20    
Growing Degree Days 34 (Base 50)    
Moisture  
Dew Point 31 °F    
Average Humidity 13    
Maximum Humidity 27    
Minimum Humidity 9    
Precipitation  
Precipitation 0.00 in - - ()
Sea Level Pressure  
Sea Level Pressure 29.89 in    
Wind  
Wind Speed 13 mph ()    
Max Wind Speed 24 mph    
Max Gust Speed 41 mph    
Visibility 6.2 miles    
Events      
T = Trace of Precipitation, MM = Missing Value Source: Averaged Metar Reports

Daily Weather History Graph

Daily Weather History Graph

Search for Another Location

Airport or City:

Astronomy

Oct. 06, 2019 Rise Set
Actual Time 6:49 AM AEDT 7:21 PM AEDT
Civil Twilight 6:24 AM AEDT 7:45 PM AEDT
Nautical Twilight 5:56 AM AEDT 8:14 PM AEDT
Astronomical Twilight 5:27 AM AEDT 8:44 PM AEDT
Moon 11:32 AM AEDT (10/6) 1:09 AM AEST (10/6)
Length of Visible Light 13h 21m
Length of Day
12h 32m
First Quarter, 53% of the Moon is Illuminated
Oct 6
First Quarter
Oct 14
Full
Oct 21
Last Quarter
Oct 28
New
Nov 4
First Quarter

Hourly Weather History & Observations

Time (AEDT) Temp. Dew Point Humidity Pressure Visibility Wind Dir Wind Speed Gust Speed Precip Events Conditions
1:00 AM 73.4 °F 35.6 °F 25% 29.98 in 6.2 mi NE 6.9 mph - N/A   Unknown
4:00 AM 73.4 °F 33.8 °F 23% 29.95 in 6.2 mi NNE 5.8 mph - N/A   Unknown
5:00 AM 71.6 °F 33.8 °F 25% 29.95 in 6.2 mi NE 5.8 mph - N/A   Unknown
6:00 AM 71.6 °F 33.8 °F 25% 29.95 in 6.2 mi ENE 4.6 mph - N/A   Unknown
7:00 AM 69.8 °F 33.8 °F 27% 29.95 in 6.2 mi NE 8.1 mph - N/A   Unknown
11:25 AM 95.0 °F 32.0 °F 11% 29.95 in 6.2 mi WNW 19.6 mph 31.1 mph N/A   Unknown
11:30 AM 96.8 °F 33.8 °F 11% 29.95 in 6.2 mi WNW 19.6 mph 31.1 mph N/A   Unknown
12:00 PM 96.8 °F 30.2 °F 10% 29.95 in 6.2 mi WNW 17.3 mph - N/A   Unknown
12:08 PM 96.8 °F 30.2 °F 10% 29.95 in 6.2 mi West 18.4 mph 29.9 mph N/A   Unknown
1:03 PM 98.6 °F 32.0 °F 10% 29.92 in 6.2 mi West 23.0 mph 35.7 mph N/A   Unknown
1:56 PM 100.4 °F 32.0 °F 9% 29.89 in 6.2 mi West 23.0 mph 34.5 mph N/A   Unknown
2:12 PM 100.4 °F 32.0 °F 9% 29.89 in 6.2 mi WNW 21.9 mph 33.4 mph N/A   Unknown
2:30 PM 98.6 °F 30.2 °F 9% 29.89 in 6.2 mi WNW 23.0 mph 41.4 mph N/A   Unknown
3:05 PM 100.4 °F 30.2 °F 9% 29.86 in 6.2 mi NW 19.6 mph - N/A   Unknown
3:09 PM 100.4 °F 32.0 °F 9% 29.86 in 6.2 mi NW 21.9 mph 33.4 mph N/A   Unknown
3:30 PM 100.4 °F 30.2 °F 9% 29.86 in 6.2 mi West 20.7 mph 34.5 mph N/A   Unknown
4:00 PM 100.4 °F 32.0 °F 9% 29.83 in 6.2 mi West 16.1 mph - N/A   Unknown
4:15 PM 100.4 °F 30.2 °F 9% 29.83 in 6.2 mi WNW 17.3 mph 28.8 mph N/A   Unknown
5:00 PM 98.6 °F 30.2 °F 9% 29.83 in 6.2 mi West 21.9 mph 34.5 mph N/A   Unknown
5:34 PM 98.6 °F 30.2 °F 9% 29.83 in 6.2 mi West 24.2 mph 39.1 mph N/A   Unknown
6:00 PM 98.6 °F 30.2 °F 9% 29.83 in 6.2 mi West 21.9 mph - N/A   Unknown
6:30 PM 96.8 °F 28.4 °F 9% 29.83 in 6.2 mi WNW 21.9 mph 34.5 mph N/A   Unknown
7:00 PM 95.0 °F 28.4 °F 9% 29.83 in 6.2 mi West 20.7 mph - N/A   Unknown
9:00 PM 89.6 °F 28.4 °F 11% 29.86 in 6.2 mi WNW 6.9 mph - N/A   Scattered Clouds
10:00 PM 86.0 °F 30.2 °F 13% 29.86 in 6.2 mi North 6.9 mph - N/A   Overcast
11:00 PM 86.0 °F 28.4 °F 12% 29.86 in 6.2 mi NW 6.9 mph - N/A   Overcast